Home   Weather   Newport News   Past weeks

Flag for USA Past Weather in Newport News, Virginia, USA — Yesterday and Last 2 Weeks

Now
64 °F

Light rain. More clouds than sun.


Feels Like: 64 °F
Forecast: 59 / 73 °F
Wind: 8 mph from Northeast

Location: Newport News / Williamsburg International Airport

Current Time: Apr 25, 2017 at 8:16:17 pm

Latest Report: Apr 25, 2017 at 7:11 pm


Visibility: 9 mi

Pressure: 29.63 "Hg

Humidity: 97%

Dew Point: 63 °F

Location of Newport NewsLocation

Past Weather in Newport News — Graph

°F

Newport News Temperature Yesterday

Maximum temperature yesterday: 60 °F (at 11:54 am)
Minimum temperature yesterday: 54 °F (at 12:33 am)
Average temperature yesterday: 57 °F

High & Low Weather Summary for the Past Weeks

 TemperatureHumidityPressure
High87 °F (Apr 21, 2:54 pm)97% (Apr 14, 3:54 am)30.42 "Hg (Apr 14, 3:54 am)
Low41 °F (Apr 14, 4:54 am)33% (Apr 16, 3:54 pm)29.61 "Hg (Apr 25, 3:54 pm)
Average64 °F74%30.09 "Hg
* Reported Apr 10 7:54 pm — Apr 25 7:11 pm, Newport News, Weather by CustomWeather, © 2017

Note: Actual official high and low records may vary slightly from our data, if they occured in-between our weather recording intervals... More about our weather records

Advertising

Newport News Weather History for the Previous 24 Hours

Scroll right to see more
 ConditionsComfort  
Time TempWeatherWind HumidityBarometerVisibility
7:11 pm
Tue, Apr 25
64 °FLight rain. More clouds than sun.8 mph97%29.63 "Hg9 mi
6:54 pm64 °FLight rain. Overcast.10 mph94%29.63 "Hg9 mi
6:18 pm65 °FLight rain. Mostly cloudy.12 mph94%29.62 "Hg10 mi
5:42 pm66 °FLight rain. Mostly cloudy.9 mph90%29.62 "Hg10 mi
5:30 pm66 °FLight rain. Cloudy.7 mph90%29.62 "Hg10 mi
5:07 pm65 °FLight rain. More clouds than sun.7 mph94%29.62 "Hg8 mi
3:54 pm70 °FSunny.14 mph76%29.61 "Hg10 mi
2:54 pm76 °FSunny.12 mph67%29.62 "Hg10 mi
1:54 pm75 °FPassing clouds.9 mph66%29.64 "Hg10 mi
12:54 pm72 °FPassing clouds.8 mph68%29.64 "Hg10 mi
11:54 am73 °FScattered clouds.8 mph74%29.64 "Hg10 mi
10:54 am66 °FFog.6 mph90%29.63 "Hg5 mi
10:23 am63 °FFog.10 mph97%29.63 "Hg4 mi
9:54 am63 °FFog.18 mph93%29.62 "Hg4 mi
8:54 am63 °FLight rain. Fog.21 mph93%29.62 "Hg6 mi
8:05 am62 °FLight rain. Fog.23 mph96%29.63 "Hg4 mi
7:39 am62 °FLight rain. Fog.23 mph96%29.65 "Hg2 mi
6:54 am62 °FFog.18 mph93%29.66 "Hg6 mi
6:03 am61 °FLight rain. Fog.20 mph97%29.68 "Hg4 mi
5:54 am61 °FLight rain. Fog.22 mph97%29.68 "Hg5 mi
5:40 am61 °FLight rain. Fog.21 mph93%29.70 "Hg3 mi
5:24 am61 °FRain. Fog.17 mph93%29.71 "Hg2 mi
4:54 am61 °FLight rain. Fog.15 mph93%29.71 "Hg3 mi
4:33 am61 °FLight rain. Fog.18 mph93%29.72 "Hg2 mi
3:54 am61 °FOvercast.14 mph93%29.73 "Hg10 mi
3:07 am61 °FMostly cloudy.9 mph90%29.76 "Hg10 mi
2:54 am61 °FLight rain. Mostly cloudy.10 mph90%29.77 "Hg7 mi
1:54 am60 °FMostly cloudy.10 mph90%29.80 "Hg10 mi
1:11 am59 °FOvercast.14 mph93%29.81 "Hg10 mi
1:04 am59 °FOvercast.10 mph93%29.81 "Hg9 mi
12:54 am59 °FMostly cloudy.13 mph96%29.81 "Hg9 mi
12:40 am59 °FMostly cloudy.14 mph96%29.82 "Hg8 mi
11:54 pm
Mon, Apr 24
60 °FFog.9 mph96%29.83 "Hg4 mi
11:39 pm60 °FFog.12 mph96%29.84 "Hg2 mi
10:54 pm60 °FFog.10 mph93%29.85 "Hg4 mi
9:54 pm59 °FLow clouds.10 mph96%29.87 "Hg8 mi
8:54 pm59 °FLow clouds.12 mph96%29.87 "Hg8 mi
Weather by CustomWeather, © 2017

See weather overviewHow to use our weather pages